"America/Chicago Time","Lifetime Energy (kWh)","Power (W)","AC Volts RMS (V) ","AC Amps RMS (mA)","Grid Frequency (Hz)","Inverter Temperature (C)"
"05/09/12 09:17:07","72.8205","121.9","217.08","570","60.03","19"
"05/09/12 09:22:07","72.8302","124.8","217.45","577","60.03","20"
"05/09/12 09:27:06","72.8401","129.2","217.23","601","60.03","19"
"05/09/12 09:32:06","72.8502","131.3","216.7","609","60.03","20"
"05/09/12 09:37:06","72.8605","133.2","217.38","614","60.03","20"
"05/09/12 09:42:06","72.8711","136.9","217.21","633","60.03","20"
"05/09/12 09:47:06","72.8819","139.1","217.09","641","60.03","20"
"05/09/12 09:52:05","72.8928","140.8","217.07","648","60.03","20"
"05/09/12 09:57:06","72.9039","144.6","217.97","661","60.07","20"
"05/09/12 10:02:05","72.9153","147.7","218.04","675","60.03","21"
"05/09/12 10:07:06","72.9267","149.5","218.02","684","60.0","21"
"05/09/12 10:12:05","72.9384","153.8","217.62","699","60.03","21"
"05/09/12 10:17:06","72.9505","155.0","218.39","713","60.0","22"
"05/09/12 10:22:06","72.9626","154.6","217.86","704","60.03","22"
"05/09/12 10:27:06","72.9748","155.8","217.87","710","60.03","23"
"05/09/12 10:32:05","72.987","158.7","217.86","714","60.0","22"
"05/09/12 10:37:05","72.9994","160.7","218.27","730","60.03","22"
"05/09/12 10:42:06","73.012","161.4","218.58","734","60.0","22"
"05/09/12 10:47:06","73.0247","163.9","218.35","744","60.03","23"
"05/09/12 10:52:06","73.0375","163.8","218.52","744","60.03","23"
"05/09/12 10:57:06","73.0503","164.6","218.22","746","60.07","23"
"05/09/12 11:02:06","73.0632","166.4","218.97","753","60.0","23"
"05/09/12 11:07:07","73.0764","170.9","218.1","771","60.03","23"
"05/09/12 11:12:05","73.0896","170.1","217.97","768","60.03","23"
"05/09/12 11:17:06","73.1027","169.5","218.73","768","60.0","23"
"05/09/12 11:22:06","73.1161","172.6","218.02","782","60.03","23"
"05/09/12 11:27:05","73.1294","172.5","218.8","777","60.03","24"
"05/09/12 11:32:06","73.143","172.8","218.04","779","60.0","24"
"05/09/12 11:37:06","73.1564","172.4","217.79","783","60.0","24"
"05/09/12 11:42:05","73.1698","172.0","217.69","782","60.03","25"
"05/09/12 11:47:07","73.1833","174.3","218.05","784","60.0","26"
"05/09/12 11:52:06","73.1969","173.6","218.43","792","60.0","26"
"05/09/12 11:57:05","73.2105","175.8","217.66","799","60.07","26"
"05/09/12 12:02:05","73.2244","178.9","218.44","799","60.03","26"
"05/09/12 12:07:06","73.2383","176.7","218.36","797","60.03","27"
"05/09/12 12:12:05","73.2522","180.5","217.52","807","60.03","26"
"05/09/12 12:17:06","73.2663","181.6","218.6","818","60.03","26"
"05/09/12 12:22:06","73.2802","176.1","218.43","799","60.03","26"
"05/09/12 12:27:05","73.2939","177.6","218.21","800","60.03","26"
"05/09/12 12:32:05","73.3078","177.9","217.71","808","60.0","26"
"05/09/12 12:37:07","73.3216","174.3","218.17","788","60.07","27"
"05/09/12 12:42:05","73.3352","175.8","217.1","793","60.0","27"
"05/09/12 12:47:05","73.349","176.2","217.53","797","60.0","27"
"05/09/12 12:52:06","73.3629","176.1","217.57","803","60.03","26"
"05/09/12 12:57:06","73.3764","176.3","218.17","795","60.0","26"
"05/09/12 13:02:07","73.3902","175.5","218.88","791","60.03","26"
"05/09/12 13:07:05","73.4036","171.6","218.64","778","60.03","27"
"05/09/12 13:12:06","73.417","172.0","218.58","774","60.03","27"
"05/09/12 13:17:06","73.4303","170.8","217.21","776","60.03","27"
"05/09/12 13:22:07","73.4436","170.9","216.94","777","60.03","27"
"05/09/12 13:27:06","73.4569","170.6","217.37","778","60.03","27"
"05/09/12 13:32:05","73.4701","169.9","216.9","769","60.03","27"
"05/09/12 13:37:06","73.4833","167.2","217.13","765","60.03","27"
"05/09/12 13:42:06","73.4964","166.5","217.36","761","60.0","27"
"05/09/12 13:47:06","73.5095","168.1","216.91","769","60.0","27"
"05/09/12 13:52:07","73.5225","165.0","217.0","747","60.0","27"
"05/09/12 13:57:06","73.5351","163.5","217.53","743","60.03","27"
"05/09/12 14:02:05","73.5479","163.3","217.19","740","60.0","27"
"05/09/12 14:07:05","73.5605","161.1","216.91","732","60.0","27"
"05/09/12 14:12:06","73.5731","160.6","217.19","734","60.0","27"
"05/09/12 14:17:05","73.5854","158.6","217.48","724","60.03","27"
"05/09/12 14:22:07","73.5978","157.9","217.72","722","60.03","26"
"05/09/12 14:27:05","73.61","156.0","217.9","708","60.03","26"
"05/09/12 14:32:05","73.622","152.5","217.8","698","60.03","27"
"05/09/12 14:37:06","73.6338","151.0","218.05","693","60.03","27"
"05/09/12 14:42:06","73.6456","149.0","217.54","686","60.0","26"
"05/09/12 14:47:05","73.6571","148.4","217.24","683","60.03","26"
"05/09/12 14:52:07","73.6687","147.6","216.61","676","60.0","26"
"05/09/12 14:57:06","73.68","143.5","217.0","659","60.03","26"
"05/09/12 15:02:06","73.6911","141.2","216.7","656","60.07","26"
"05/09/12 15:07:06","73.702","140.1","216.99","641","60.0","26"
"05/09/12 15:12:06","73.7127","134.7","217.38","619","60.03","27"
"05/09/12 15:17:06","73.7231","132.5","217.39","614","60.0","27"
"05/09/12 15:22:07","73.7335","130.9","217.52","606","60.03","27"
"05/09/12 15:27:05","73.7435","128.5","217.64","598","60.03","27"
"05/09/12 15:32:07","73.7535","126.3","217.27","588","60.03","26"
"05/09/12 15:37:06","73.7632","123.8","217.15","577","60.03","26"
"05/09/12 15:42:05","73.7727","120.0","217.19","562","60.03","27"
"05/09/12 15:47:06","73.782","118.2","216.75","553","60.0","27"
"05/09/12 15:52:06","73.7911","116.1","217.81","538","60.03","26"
"05/09/12 15:57:06","73.8","113.1","217.25","531","60.03","26"
"05/09/12 16:02:06","73.8087","110.2","217.29","514","60.07","26"
"05/09/12 16:07:06","73.8172","107.0","218.13","503","60.03","26"
"05/09/12 16:12:06","73.8254","103.4","217.28","490","60.03","26"
"05/09/12 16:17:06","73.8333","99.9","216.76","476","60.0","25"
"05/09/12 16:22:07","73.841","97.1","216.12","461","60.03","25"
"05/09/12 16:27:06","73.8484","93.1","215.99","451","60.0","25"
"05/09/12 16:32:06","73.8556","90.9","216.65","439","60.03","25"
"05/09/12 16:37:05","73.8625","87.8","215.32","423","60.03","24"
"05/09/12 16:42:06","73.8692","83.5","215.59","410","60.03","24"
"05/09/12 16:47:06","73.8756","80.1","215.33","394","60.03","23"
"05/09/12 16:52:06","73.8817","76.1","215.51","379","60.03","23"
"05/09/12 16:57:06","73.8874","72.2","215.86","358","60.03","23"
"05/09/12 17:02:06","73.8929","68.6","215.6","341","60.03","23"
"05/09/12 17:07:06","73.898","64.3","214.98","326","60.0","23"
"05/09/12 17:12:09","73.9029","60.6","214.97","311","60.03","23"
"05/09/12 17:17:10","73.9071","57.7","215.23","114","60.03","23"
"05/09/12 17:22:09","73.9112","39.1","215.3","342","60.0","23"
"05/09/12 17:27:10","73.9152","46.4","214.98","410","60.03","23"
"05/09/12 17:32:11","73.9189","40.5","215.0","256","60.0","23"
"05/09/12 17:37:10","73.9222","36.0","214.18","112","60.0","22"
"05/09/12 17:42:09","73.9253","33.2","214.08","110","60.03","22"
"05/09/12 17:47:10","73.928","28.8","214.27","259","60.0","22"
"05/09/12 17:52:10","73.9303","25.9","213.96","146","60.03","21"
"05/09/12 17:57:11","73.9325","28.9","214.58","31","60.03","21"
"05/09/12 18:02:09","73.9344","18.3","213.72","18","60.0","20"
"05/09/12 18:07:11","73.936","21.1","213.47","192","60.0","20"
"05/09/12 18:12:10","73.9374","12.9","213.71","212","60.03","20"
"05/09/12 18:17:10","73.9386","13.2","213.72","161","60.03","19"
"05/09/12 18:22:09","73.9396","11.0","213.36","2","60.0","19"
"05/09/12 18:27:10","73.9405","11.7","213.18","0","60.0","19"
"05/09/12 18:32:09","73.9411","12.7","214.03","0","60.03","19"
"05/09/12 18:37:10","73.9416","0.0","213.69","0","60.03","18"
"05/09/12 18:42:11","73.942","0.0","213.88","0","60.07","18"
"05/09/12 18:47:09","73.9423","0.0","213.51","0","60.03","18"
"05/09/12 19:02:09","73.9431","0.0","213.4","0","60.03","18"
"05/10/12 06:12:12","73.9431","0.0","211.98","0","60.0","10"
"05/10/12 06:37:10","73.9452","11.5","213.43","0","60.03","12"
"05/10/12 06:42:10","73.9462","11.5","213.15","80","60.0","13"
"05/10/12 06:47:10","73.9473","25.3","213.42","271","60.03","13"
"05/10/12 06:52:10","73.9487","14.2","213.44","246","60.03","13"
"05/10/12 06:57:10","73.9503","13.0","213.69","22","60.07","14"
"05/10/12 07:02:11","73.9522","35.8","214.48","30","60.0","14"
"05/10/12 07:07:11","73.9544","25.7","213.74","86","60.0","15"
"05/10/12 07:12:11","73.9569","28.6","214.81","271","60.0","15"
"05/10/12 07:17:10","73.9595","41.7","214.69","303","60.03","15"
"05/10/12 07:22:11","73.9625","46.4","213.86","184","60.03","15"
"05/10/12 07:27:10","73.9658","39.4","214.18","239","60.03","16"
"05/10/12 07:32:11","73.9695","48.8","213.93","339","60.0","17"
"05/10/12 07:37:10","73.9733","43.7","214.05","378","60.03","17"
"05/10/12 07:42:10","73.9775","53.7","213.25","276","60.0","17"
"05/10/12 07:47:11","73.982","55.2","213.72","435","60.03","17"
"05/10/12 07:52:10","73.9866","64.2","215.33","322","60.03","18"
"05/10/12 07:57:11","73.9918","68.2","215.64","342","60.0","18"
"05/10/12 08:02:11","73.9972","72.0","215.53","357","60.0","18"
"05/10/12 08:07:10","74.0029","75.5","215.01","374","60.03","18"
"05/10/12 08:12:11","74.009","79.5","216.01","388","60.0","19"
"05/10/12 08:17:11","74.0152","82.9","214.45","407","60.03","19"
"05/10/12 08:22:11","74.0219","86.9","214.79","426","60.0","19"
"05/10/12 08:27:12","74.0288","90.6","214.26","442","60.03","20"
"05/10/12 08:32:11","74.036","94.0","214.41","454","60.03","20"
"05/10/12 08:37:10","74.0434","97.2","214.7","467","60.03","20"
"05/10/12 08:42:11","74.0511","100.9","214.44","482","60.0","20"
"05/10/12 08:47:11","74.0591","103.5","214.07","498","60.03","21"
"05/10/12 08:52:11","74.0673","106.7","213.58","513","60.03","22"
"05/10/12 08:57:11","74.0758","110.8","215.74","520","60.03","22"
"05/10/12 09:02:11","74.0845","113.4","215.04","534","60.03","22"
"05/10/12 09:07:11","74.0934","116.6","215.27","549","60.03","22"
"05/10/12 09:12:11","74.1026","119.2","215.55","563","60.03","23"
"05/10/12 09:17:11","74.1119","122.2","216.57","569","60.03","23"
"05/10/12 09:22:11","74.1215","125.4","217.05","582","60.03","23"
"05/10/12 09:27:11","74.1313","127.5","217.21","594","60.0","23"
"05/10/12 09:32:10","74.1413","130.2","217.1","603","60.03","23"
"05/10/12 09:37:11","74.1516","132.6","216.19","618","60.03","24"
"05/10/12 09:42:10","74.162","134.5","217.31","621","60.03","24"
"05/10/12 09:47:10","74.1726","137.5","217.09","636","60.0","24"
"05/10/12 09:52:11","74.1835","139.9","216.79","648","60.03","24"
"05/10/12 09:57:10","74.1944","141.3","216.72","657","60.03","25"
"05/10/12 10:02:10","74.2055","143.5","216.59","663","60.03","25"
"05/10/12 10:07:10","74.2168","145.5","216.62","667","60.0","25"
"05/10/12 10:12:11","74.2283","147.7","216.31","679","60.0","25"
"05/10/12 10:17:11","74.2398","149.7","217.74","685","60.0","26"
"05/10/12 10:22:10","74.2515","151.2","217.72","689","60.03","26"
"05/10/12 10:27:10","74.2633","152.6","217.69","700","60.03","26"
"05/10/12 10:32:12","74.2753","154.0","218.16","701","60.03","27"
"05/10/12 10:37:11","74.2873","155.5","216.68","708","60.0","27"
"05/10/12 10:42:10","74.2995","157.2","217.04","717","60.0","27"
"05/10/12 10:47:11","74.3118","158.4","217.11","726","60.0","27"
"05/10/12 10:52:10","74.3241","159.9","217.62","729","60.03","28"
"05/10/12 10:57:10","74.3366","161.3","217.4","735","60.03","28"
"05/10/12 11:02:11","74.3493","162.2","217.8","743","60.0","28"
"05/10/12 11:07:11","74.362","164.7","218.88","741","60.03","28"
"05/10/12 11:12:11","74.3747","163.4","218.1","743","60.03","29"
"05/10/12 11:17:10","74.3875","165.8","218.93","745","60.0","29"
"05/10/12 11:22:11","74.4005","166.9","218.39","756","60.03","29"
"05/10/12 11:27:11","74.4135","167.3","217.95","755","60.03","29"
"05/10/12 11:32:11","74.4266","167.6","217.61","763","60.0","29"
"05/10/12 11:37:11","74.4397","168.6","217.86","767","60.03","29"
"05/10/12 11:42:12","74.453","169.2","218.36","767","60.0","30"
"05/10/12 11:47:11","74.4661","170.5","218.22","772","60.03","30"
"05/10/12 11:52:11","74.4794","170.0","218.16","774","60.03","30"
"05/10/12 11:57:12","74.4927","170.2","217.99","774","60.0","30"
"05/10/12 12:02:10","74.506","170.8","218.01","781","60.03","30"
"05/10/12 12:07:12","74.5193","172.0","217.83","775","60.03","30"
"05/10/12 12:12:10","74.5328","172.3","217.86","782","60.03","30"
"05/10/12 12:17:11","74.5462","172.1","217.95","781","60.0","30"
"05/10/12 12:22:10","74.5596","172.2","218.22","783","60.03","30"
"05/10/12 12:27:11","74.573","172.4","217.91","780","60.0","30"
"05/10/12 12:32:11","74.5865","173.1","218.07","782","60.0","30"
"05/10/12 12:37:12","74.5999","171.4","218.25","776","60.03","30"
"05/10/12 12:42:11","74.6133","170.8","217.77","775","60.0","31"
"05/10/12 12:47:10","74.6266","171.3","217.62","779","60.03","31"
"05/10/12 12:52:10","74.64","171.5","217.83","778","60.03","31"
"05/10/12 12:57:11","74.6534","171.1","217.71","777","60.03","31"
"05/10/12 13:02:11","74.6667","168.8","217.88","769","60.0","31"
"05/10/12 13:07:11","74.6798","169.2","217.61","760","60.0","31"
"05/10/12 13:12:11","74.6929","168.1","217.39","764","60.0","32"
"05/10/12 13:17:11","74.706","167.6","217.53","766","60.03","32"
"05/10/12 13:22:11","74.719","166.3","217.67","756","60.07","32"
"05/10/12 13:27:11","74.732","167.5","217.77","759","60.03","32"
"05/10/12 13:32:12","74.745","165.4","217.85","753","60.03","32"
"05/10/12 13:37:11","74.7579","164.4","218.5","746","60.03","32"
"05/10/12 13:42:11","74.7707","163.9","217.86","746","60.03","32"
"05/10/12 13:47:10","74.7833","162.7","218.65","741","60.03","32"
"05/10/12 13:52:11","74.7959","159.7","218.62","723","60.03","32"
"05/10/12 13:57:11","74.8082","158.2","218.91","720","60.03","32"
"05/10/12 14:02:11","74.8206","157.6","219.04","712","60.0","32"
"05/10/12 14:07:10","74.8327","156.9","219.02","714","60.0","32"
"05/10/12 14:12:12","74.845","155.5","219.36","704","60.0","33"
"05/10/12 14:17:10","74.8569","154.4","218.0","701","60.0","32"
"05/10/12 14:22:11","74.869","152.9","218.81","696","60.03","32"
"05/10/12 14:27:10","74.8807","151.6","218.45","692","60.03","32"
"05/10/12 14:32:11","74.8925","148.9","218.64","680","60.03","32"
"05/10/12 14:37:10","74.904","148.0","218.66","672","60.0","32"
"05/10/12 14:42:11","74.9155","146.0","218.55","668","60.0","32"
"05/10/12 14:47:10","74.9267","144.2","219.02","653","60.0","32"
"05/10/12 14:52:12","74.9379","140.6","218.0","646","60.0","32"
"05/10/12 14:57:10","74.9487","140.0","217.2","649","60.0","32"
"05/10/12 15:02:11","74.9596","138.1","218.35","636","60.03","32"
"05/10/12 15:07:11","74.9702","134.8","217.91","620","60.03","32"
"05/10/12 15:12:10","74.9806","133.4","217.75","610","60.03","32"
"05/10/12 15:17:11","74.991","130.9","217.07","610","60.03","32"
"05/10/12 15:22:10","75.001","129.6","217.77","599","60.0","31"
"05/10/12 15:27:11","75.0111","126.4","217.88","583","60.0","32"
"05/10/12 15:32:10","75.0208","124.0","217.75","578","60.0","31"
"05/10/12 15:37:11","75.0304","121.1","217.6","564","60.0","31"
"05/10/12 15:42:12","75.0398","118.8","217.81","554","60.03","31"
"05/10/12 15:47:10","75.0489","116.3","217.33","545","60.03","31"
"05/10/12 15:52:10","75.0579","113.5","216.46","532","60.0","30"
"05/10/12 15:57:12","75.0666","111.3","216.87","525","60.03","30"
"05/10/12 16:02:11","75.0751","108.3","216.7","511","60.03","29"
"05/10/12 16:07:11","75.0833","104.6","216.41","499","60.03","30"
"05/10/12 16:12:11","75.0914","101.4","216.65","485","60.03","29"
"05/10/12 16:17:10","75.0991","98.1","216.96","468","60.0","29"
"05/10/12 16:22:11","75.1066","94.0","216.95","447","60.03","30"
"05/10/12 16:27:11","75.1138","91.0","216.88","437","60.03","30"
"05/10/12 16:32:10","75.1208","87.6","216.76","424","60.03","30"
"05/10/12 16:37:12","75.1275","84.3","216.31","408","60.0","30"
"05/10/12 16:42:11","75.1339","80.8","216.02","393","60.0","29"
"05/10/12 16:47:11","75.1401","77.6","216.41","383","60.03","29"
"05/10/12 16:52:11","75.146","74.1","216.8","365","60.03","29"
"05/10/12 16:57:10","75.1515","70.4","216.58","348","60.03","29"
"05/10/12 17:02:10","75.1568","66.3","216.7","329","60.07","29"
"05/10/12 17:07:11","75.1618","62.5","216.09","317","60.0","29"
"05/10/12 17:12:10","75.1663","57.8","215.54","182","60.03","30"
"05/10/12 17:17:10","75.1705","60.7","215.71","84","60.03","30"
"05/10/12 17:22:10","75.1744","53.2","214.94","345","60.03","30"
"05/10/12 17:27:11","75.1782","47.3","215.4","112","60.03","30"
"05/10/12 17:32:11","75.1817","37.0","215.22","181","60.03","30"
"05/10/12 17:37:12","75.1849","34.0","215.5","270","60.03","30"
"05/10/12 17:42:10","75.1878","40.7","215.06","258","60.03","30"
"05/10/12 17:47:11","75.1904","27.5","215.2","257","60.0","30"
"05/10/12 17:52:11","75.1928","32.7","214.87","98","60.03","30"
"05/10/12 17:57:12","75.1949","27.2","215.63","47","60.03","30"
"05/10/12 18:02:11","75.1967","19.4","215.02","35","60.03","30"
"05/10/12 18:07:11","75.1983","11.1","215.04","140","60.03","30"
"05/10/12 18:12:10","75.1996","23.4","214.2","176","60.03","29"
"05/10/12 18:17:10","75.2008","10.5","214.61","47","60.0","29"
"05/10/12 18:22:10","75.2017","13.7","213.4","4","60.0","28"
"05/10/12 18:27:11","75.2025","8.7","213.32","0","60.03","26"
"05/10/12 18:32:10","75.2031","14.7","213.41","0","60.0","26"
"05/10/12 18:37:11","75.2035","11.5","214.19","0","60.0","25"
"05/10/12 18:42:11","75.2039","11.2","214.02","7","60.07","24"
"05/10/12 18:47:12","75.2041","7.1","214.34","0","60.03","23"
"05/10/12 18:52:11","75.2044","10.4","214.24","0","60.03","23"
"05/10/12 18:57:12","75.2046","0.0","213.46","0","60.03","22"
"05/10/12 19:02:11","75.2048","13.7","212.48","60","60.0","22"
"05/10/12 19:17:10","75.2051","0.0","212.82","0","60.0","19"
"05/11/12 06:27:12","75.2052","12.7","212.88","83","60.0","11"
"05/11/12 06:32:10","75.2053","0.0","213.01","0","60.0","12"
"05/11/12 06:37:10","75.2054","0.0","213.89","0","60.03","13"
"05/11/12 06:42:10","75.206","12.4","214.0","37","60.0","13"
"05/11/12 06:47:11","75.2072","21.9","214.13","247","60.03","14"
"05/11/12 06:52:12","75.2086","18.2","214.57","212","60.03","15"
"05/11/12 06:57:11","75.2102","33.0","213.73","177","60.03","15"
"05/11/12 07:02:11","75.2121","20.8","214.15","264","60.0","16"
"05/11/12 07:07:12","75.2143","32.7","213.55","231","60.03","17"
"05/11/12 07:12:12","75.2162","12.8","213.47","80","59.96","17"
"05/11/12 07:17:11","75.2185","37.9","214.46","285","60.03","18"
"05/11/12 07:22:12","75.2215","48.3","215.19","324","60.03","18"
"05/11/12 07:27:10","75.2244","31.1","214.28","259","60.03","18"
"05/11/12 07:32:12","75.2276","48.8","214.84","135","60.0","19"
"05/11/12 07:37:11","75.2316","40.4","214.37","79","60.03","19"
"05/11/12 07:42:10","75.2356","43.0","214.84","423","60.03","20"
"05/11/12 07:47:11","75.2383","39.7","213.42","234","60.03","20"
"05/11/12 07:52:12","75.2425","50.9","215.47","77","60.03","20"
"05/11/12 07:57:10","75.2475","73.9","215.36","366","60.0","21"
"05/11/12 08:02:11","75.2533","74.5","215.26","369","60.0","22"
"05/11/12 08:07:11","75.259","72.1","214.9","360","60.03","22"
"05/11/12 08:12:11","75.2646","78.7","214.96","389","60.0","23"
"05/11/12 08:17:12","75.2709","82.8","215.57","403","60.0","23"
"05/11/12 08:22:12","75.2775","86.3","215.86","418","60.03","24"
"05/11/12 08:27:12","75.2842","77.1","215.34","378","60.03","24"
"05/11/12 08:32:10","75.2906","92.8","216.81","445","60.0","24"
"05/11/12 08:37:11","75.2978","93.8","215.73","451","60.03","25"
"05/11/12 08:42:12","75.3052","94.9","215.39","454","60.0","25"
"05/11/12 08:47:11","75.3128","101.2","216.58","481","60.03","26"
"05/11/12 08:52:12","75.3208","102.6","216.09","484","60.03","26"
"05/11/12 08:57:11","75.3289","105.1","215.89","500","60.0","27"
"05/11/12 09:02:10","75.3371","107.2","216.14","508","60.03","27"
"05/11/12 09:07:12","75.3457","111.3","216.33","522","60.03","28"
"05/11/12 09:12:11","75.3545","114.7","216.21","538","60.03","28"
"05/11/12 09:17:10","75.3635","118.2","216.74","550","60.0","29"
"05/11/12 09:22:10","75.3728","120.1","216.44","561","60.0","29"
"05/11/12 09:27:11","75.3823","123.6","216.34","578","60.03","29"
"05/11/12 09:32:12","75.392","125.1","215.35","588","60.0","30"
"05/11/12 09:37:12","75.4019","127.7","214.97","599","60.03","30"
"05/11/12 09:42:11","75.4119","131.7","216.65","607","60.03","31"
"05/11/12 09:47:12","75.4222","129.9","217.63","602","60.03","31"
"05/11/12 09:52:12","75.4325","133.9","216.72","618","60.0","32"
"05/11/12 09:57:12","75.4426","124.2","216.63","582","60.0","32"
"05/11/12 10:02:11","75.452","122.3","217.08","571","60.03","32"
"05/11/12 10:07:12","75.462","131.5","216.81","614","60.03","32"
"05/11/12 10:12:11","75.4725","130.4","217.39","604","60.0","33"
"05/11/12 10:17:11","75.483","137.8","218.3","634","60.03","33"
"05/11/12 10:22:12","75.4933","132.7","217.99","612","60.0","33"
"05/11/12 10:27:12","75.5033","120.7","217.38","560","60.07","33"
"05/11/12 10:32:11","75.5139","147.1","217.7","671","60.0","34"
"05/11/12 10:37:11","75.5255","149.6","217.71","684","60.0","34"
"05/11/12 10:42:12","75.5372","152.8","217.4","696","60.0","35"
"05/11/12 10:47:10","75.549","152.3","218.0","698","60.07","35"
"05/11/12 10:52:11","75.5607","149.5","217.89","684","60.0","36"
"05/11/12 10:57:11","75.5726","156.1","218.9","708","60.07","36"
"05/11/12 11:02:11","75.5846","153.8","218.18","697","60.0","37"
"05/11/12 11:07:12","75.5968","155.3","218.7","699","60.0","37"
"05/11/12 11:12:11","75.6089","157.1","218.09","716","60.0","38"
"05/11/12 11:17:11","75.6213","158.9","218.52","722","60.07","38"
"05/11/12 11:22:12","75.6335","158.9","218.07","722","60.0","38"
"05/11/12 11:27:12","75.646","160.3","218.03","724","60.0","38"
"05/11/12 11:32:12","75.6583","159.1","218.29","726","60.03","38"
"05/11/12 11:37:12","75.6706","156.0","218.2","708","59.96","38"
"05/11/12 11:42:11","75.6824","150.9","217.91","686","60.0","38"
"05/11/12 11:47:12","75.6943","145.9","218.11","668","60.03","38"
"05/11/12 11:52:12","75.7057","146.1","217.78","669","60.03","38"
"05/11/12 11:57:12","75.7167","141.7","217.99","651","60.03","37"
"05/11/12 12:02:12","75.7277","140.7","217.94","650","60.03","37"
"05/11/12 12:07:11","75.7385","149.3","218.57","679","60.0","38"
"05/11/12 12:12:10","75.7504","149.1","217.92","680","60.0","38"
"05/11/12 12:17:11","75.7625","158.3","218.13","719","60.03","38"
"05/11/12 12:22:11","75.7746","155.7","217.38","714","60.03","38"
"05/11/12 12:27:12","75.7872","163.3","218.24","739","60.03","39"
"05/11/12 12:32:10","75.7998","157.6","217.64","715","60.03","39"
"05/11/12 12:37:10","75.812","155.0","217.79","708","60.03","40"
"05/11/12 12:42:11","75.8242","160.0","217.87","731","60.03","40"
"05/11/12 12:47:12","75.8366","155.9","218.29","714","60.0","41"
"05/11/12 12:52:12","75.8467","155.3","218.27","705","60.03","40"
"05/11/12 12:57:11","75.8587","155.3","218.19","711","60.0","40"
"05/11/12 13:02:11","75.8714","159.6","218.46","723","60.03","41"
"05/11/12 13:07:12","75.8815","146.4","217.71","668","60.03","40"
"05/11/12 13:12:11","75.8935","157.4","218.61","718","60.03","40"
"05/11/12 13:17:11","75.9046","160.0","217.78","729","60.03","39"
"05/11/12 13:22:11","75.9145","42.8","214.42","378","60.03","38"
"05/11/12 13:27:11","75.9183","40.2","216.2","107","60.03","36"
"05/11/12 13:32:12","75.9218","34.1","214.6","291","60.03","35"
"05/11/12 13:37:11","75.9242","35.3","214.7","120","60.03","33"
"05/11/12 13:42:12","75.926","16.0","213.95","13","60.0","32"
"05/11/12 13:47:11","75.9275","14.2","213.87","211","60.03","31"
"05/11/12 13:52:12","75.9292","21.9","214.67","247","60.03","29"
"05/11/12 13:57:10","75.932","52.8","215.12","394","60.0","29"
"05/11/12 14:02:12","75.9367","78.7","215.56","386","60.0","28"
"05/11/12 14:07:11","75.9438","114.3","216.36","538","60.03","28"
"05/11/12 14:12:12","75.9492","45.3","214.42","415","60.03","28"
"05/11/12 14:17:10","75.9529","50.7","215.22","76","60.03","27"
"05/11/12 14:22:10","75.9585","83.7","215.55","405","60.0","27"
"05/11/12 14:27:11","75.9672","130.5","217.48","607","60.03","28"
"05/11/12 14:32:12","75.976","82.9","215.45","406","60.03","28"
"05/11/12 14:37:12","75.9824","78.1","215.99","384","60.0","28"
"05/11/12 14:42:11","75.9866","44.0","214.32","80","60.0","27"